,,,PA_Meas_PMT16A,,PR_Meas_QMR101_102,,RH_Meas_QMH101,,SR_Meas_QMS101,,TA_Meas_QMH101,,GenWind,,GenWind,
date,time,status,PA,status,PR,status,RH,status,SR,status,TA,status,DirAvg,status,SpdAvg,
2011-09-21, 00:00:05,VALID,1005.65,VALID,0,INVALID,163.83,VALID,0,VALID,22.9056,VALID,348,VALID,0,
2011-09-21, 00:01:05,VALID,1005.61,VALID,0,INVALID,163.868,VALID,0,VALID,22.8861,VALID,348,VALID,0,
2011-09-21, 00:02:05,VALID,1005.59,VALID,0,INVALID,163.838,VALID,0,VALID,22.8861,VALID,348,VALID,0,
2011-09-21, 00:03:05,VALID,1005.6,VALID,0,INVALID,163.861,VALID,0,VALID,22.8861,VALID,348,VALID,0,
2011-09-21, 00:04:05,VALID,1005.56,VALID,0,INVALID,163.861,VALID,0,VALID,22.8649,VALID,348,VALID,0,
2011-09-21, 00:05:05,VALID,1005.54,VALID,0,INVALID,163.853,VALID,0,VALID,22.8861,VALID,348,VALID,0,
2011-09-21, 00:06:05,VALID,1005.56,VALID,0,INVALID,163.861,VALID,0,VALID,22.9039,VALID,348,VALID,0,
2011-09-21, 00:07:05,VALID,1005.54,VALID,0,INVALID,163.861,VALID,0,VALID,22.9251,VALID,348,VALID,0,
2011-09-21, 00:08:05,VALID,1005.53,VALID,0,INVALID,163.838,VALID,0,VALID,22.8844,VALID,348,VALID,0,
2011-09-21, 00:09:05,VALID,1005.51,VALID,0,INVALID,163.861,VALID,0,VALID,22.8861,VALID,348,VALID,0,
2011-09-21, 00:10:05,VALID,1005.5,VALID,0,INVALID,163.845,VALID,0,VALID,22.8861,VALID,348,VALID,0,
2011-09-21, 00:11:05,VALID,1005.47,VALID,0,INVALID,163.83,VALID,0,VALID,22.8861,VALID,348,VALID,0,
2011-09-21, 00:12:05,VALID,1005.45,VALID,0,INVALID,163.838,VALID,0,VALID,22.8844,VALID,348,VALID,0,
2011-09-21, 00:13:05,VALID,1005.42,VALID,0,INVALID,163.823,VALID,0,VALID,22.9056,VALID,348,VALID,0,
2011-09-21, 00:14:05,VALID,1005.41,VALID,0,INVALID,163.83,VALID,0,VALID,22.8667,VALID,348,VALID,0,
2011-09-21, 00:15:05,VALID,1005.41,VALID,0,INVALID,163.83,VALID,0,VALID,22.8667,VALID,348,VALID,0,
2011-09-21, 00:16:05,VALID,1005.38,VALID,0,INVALID,163.853,VALID,0,VALID,22.8649,VALID,348,VALID,0,
2011-09-21, 00:17:05,VALID,1005.34,VALID,0,INVALID,163.83,VALID,0,VALID,22.8455,VALID,348,VALID,0,
2011-09-21, 00:18:05,VALID,1005.37,VALID,0,INVALID,163.838,VALID,0,VALID,22.8455,VALID,348,VALID,0,
2011-09-21, 00:19:05,VALID,1005.36,VALID,0,INVALID,163.861,VALID,0,VALID,22.8667,VALID,348,VALID,0,
2011-09-21, 00:20:05,VALID,1005.35,VALID,0,INVALID,163.876,VALID,0,VALID,22.8649,VALID,348,VALID,0,
2011-09-21, 00:21:05,VALID,1005.33,VALID,0,INVALID,163.838,VALID,0,VALID,22.8649,VALID,348,VALID,0,
2011-09-21, 00:22:05,VALID,1005.3,VALID,0,INVALID,163.868,VALID,0,VALID,22.8861,VALID,348,VALID,0,
2011-09-21, 00:23:05,VALID,1005.3,VALID,0,INVALID,163.838,VALID,0.100563,VALID,22.8438,VALID,348,VALID,0,
2011-09-21, 00:24:05,VALID,1005.28,VALID,0,INVALID,163.845,VALID,0,VALID,22.8844,VALID,348,VALID,0,
2011-09-21, 00:25:05,VALID,1005.28,VALID,0,INVALID,163.838,VALID,0,VALID,22.8844,VALID,348,VALID,0,
2011-09-21, 00:26:05,VALID,1005.24,VALID,0,INVALID,163.868,VALID,0,VALID,22.8649,VALID,348,VALID,0,
2011-09-21, 00:27:05,VALID,1005.24,VALID,0,INVALID,163.861,VALID,0,VALID,22.9056,VALID,348,VALID,0,
2011-09-21, 00:28:05,VALID,1005.21,VALID,0,INVALID,163.853,VALID,0,VALID,22.9056,VALID,348,VALID,0,
2011-09-21, 00:29:05,VALID,1005.24,VALID,0,INVALID,163.861,VALID,0,VALID,22.8844,VALID,348,VALID,0,
2011-09-21, 00:30:05,VALID,1005.24,VALID,0,INVALID,163.823,VALID,0,VALID,22.9039,VALID,348,VALID,0,
2011-09-21, 00:31:05,VALID,1005.24,VALID,0,INVALID,163.853,VALID,0.100563,VALID,22.9233,VALID,348,VALID,0,
2011-09-21, 00:32:05,VALID,1005.21,VALID,0,INVALID,163.845,VALID,0.100563,VALID,22.9039,VALID,353,VALID,0,
2011-09-21, 00:33:05,VALID,1005.2,VALID,0,INVALID,163.868,VALID,0.100563,VALID,22.8827,VALID,360,VALID,0,
2011-09-21, 00:34:05,VALID,1005.15,VALID,0,INVALID,163.853,VALID,0.100563,VALID,22.9039,VALID,360,VALID,0,
2011-09-21, 00:35:05,VALID,1005.14,VALID,0,INVALID,163.845,VALID,0.100563,VALID,22.9021,VALID,360,VALID,0,
2011-09-21, 00:36:05,VALID,1005.14,VALID,0,INVALID,163.853,VALID,0.100563,VALID,22.9039,VALID,360,VALID,0,
2011-09-21, 00:37:05,VALID,1005.13,VALID,0,INVALID,163.868,VALID,0.100563,VALID,22.8649,VALID,360,VALID,0,
2011-09-21, 00:38:05,VALID,1005.12,VALID,0,INVALID,163.845,VALID,0.100563,VALID,22.8649,VALID,360,VALID,0,
2011-09-21, 00:39:05,VALID,1005.07,VALID,0,INVALID,163.868,VALID,0.100563,VALID,22.8632,VALID,360,VALID,0,
2011-09-21, 00:40:05,VALID,1005.08,VALID,0,INVALID,163.861,VALID,0.100563,VALID,22.8632,VALID,360,VALID,0,
2011-09-21, 00:41:04,VALID,1005.06,VALID,0,INVALID,163.876,VALID,0.100563,VALID,22.8615,VALID,360,VALID,0,
2011-09-21, 00:42:04,VALID,1005.07,VALID,0,INVALID,163.868,VALID,0.201126,VALID,22.8615,VALID,360,VALID,0,
2011-09-21, 00:43:04,VALID,1005.05,VALID,0,INVALID,163.815,VALID,0.100563,VALID,22.9039,VALID,360,VALID,0,
2011-09-21, 00:44:04,VALID,1005.04,VALID,0,INVALID,163.838,VALID,0.100563,VALID,22.8827,VALID,360,VALID,0,
2011-09-21, 00:45:04,VALID,1005.04,VALID,0,INVALID,163.845,VALID,0.201126,VALID,22.8844,VALID,360,VALID,0,
2011-09-21, 00:46:04,VALID,1005.05,VALID,0,INVALID,163.861,VALID,0,VALID,22.8844,VALID,360,VALID,0,
2011-09-21, 00:47:04,VALID,1005.04,VALID,0,INVALID,163.845,VALID,0,VALID,22.9056,VALID,360,VALID,0,
2011-09-21, 00:48:04,VALID,1005.01,VALID,0,INVALID,163.838,VALID,0,VALID,22.9039,VALID,360,VALID,0,
2011-09-21, 00:49:04,VALID,1005.02,VALID,0,INVALID,163.845,VALID,0,VALID,22.9056,VALID,360,VALID,0,
2011-09-21, 00:50:04,VALID,1004.99,VALID,0,INVALID,163.868,VALID,0,VALID,22.9233,VALID,360,VALID,0,
2011-09-21, 00:51:04,VALID,1004.96,VALID,0,INVALID,163.861,VALID,0,VALID,22.9233,VALID,360,VALID,0,
2011-09-21, 00:52:04,VALID,1004.93,VALID,0,INVALID,163.853,VALID,0,VALID,22.9233,VALID,360,VALID,0,
2011-09-21, 00:53:04,VALID,1004.92,VALID,0,INVALID,163.876,VALID,0,VALID,22.9428,VALID,360,VALID,0,
2011-09-21, 00:54:04,VALID,1004.9,VALID,0,INVALID,163.853,VALID,0,VALID,22.9233,VALID,360,VALID,0,
2011-09-21, 00:55:04,VALID,1004.87,VALID,0,INVALID,163.868,VALID,0,VALID,22.9233,VALID,360,VALID,0,
2011-09-21, 00:56:04,VALID,1004.85,VALID,0,INVALID,163.845,VALID,0.100563,VALID,22.9251,VALID,360,VALID,0,
2011-09-21, 00:57:04,VALID,1004.86,VALID,0,INVALID,163.823,VALID,0,VALID,22.8844,VALID,360,VALID,0,
2011-09-21, 00:58:04,VALID,1004.83,VALID,0,INVALID,163.876,VALID,0,VALID,22.8455,VALID,360,VALID,0,
2011-09-21, 00:59:04,VALID,1004.81,VALID,0,INVALID,163.853,VALID,0,VALID,22.8455,VALID,360,VALID,0,
2011-09-21, 01:00:04,VALID,1004.8,VALID,0,INVALID,163.861,VALID,0,VALID,22.8472,VALID,360,VALID,0,
2011-09-21, 01:01:04,VALID,1004.78,VALID,0,INVALID,163.845,VALID,0,VALID,22.8066,VALID,360,VALID,0,
2011-09-21, 01:02:04,VALID,1004.76,VALID,0,INVALID,163.853,VALID,0,VALID,22.8066,VALID,360,VALID,0,
2011-09-21, 01:03:04,VALID,1004.74,VALID,0,INVALID,163.823,VALID,0,VALID,22.7871,VALID,360,VALID,0,
2011-09-21, 01:04:04,VALID,1004.72,VALID,0,INVALID,163.861,VALID,0,VALID,22.7677,VALID,360,VALID,0,
2011-09-21, 01:05:04,VALID,1004.69,VALID,0,INVALID,163.861,VALID,0,VALID,22.7287,VALID,360,VALID,0,
2011-09-21, 01:06:04,VALID,1004.69,VALID,0,INVALID,163.853,VALID,0,VALID,22.7287,VALID,360,VALID,0,
2011-09-21, 01:07:04,VALID,1004.66,VALID,0,INVALID,163.853,VALID,0.100563,VALID,22.7499,VALID,360,VALID,0,
2011-09-21, 01:08:04,VALID,1004.63,VALID,0,INVALID,163.853,VALID,0,VALID,22.7093,VALID,360,VALID,0,
2011-09-21, 01:09:04,VALID,1004.59,VALID,0,INVALID,163.861,VALID,0,VALID,22.711,VALID,360,VALID,0,
2011-09-21, 01:10:04,VALID,1004.61,VALID,0,INVALID,163.861,VALID,0,VALID,22.6898,VALID,360,VALID,0,
2011-09-21, 01:11:04,VALID,1004.58,VALID,0,INVALID,163.876,VALID,0,VALID,22.6898,VALID,360,VALID,0,
2011-09-21, 01:12:04,VALID,1004.62,VALID,0,INVALID,163.861,VALID,0,VALID,22.6898,VALID,360,VALID,0,
2011-09-21, 01:13:04,VALID,1004.59,VALID,0,INVALID,163.868,VALID,0,VALID,22.7093,VALID,360,VALID,0,
2011-09-21, 01:14:04,VALID,1004.6,VALID,0,INVALID,163.876,VALID,0,VALID,22.6898,VALID,360,VALID,0,
2011-09-21, 01:15:04,VALID,1004.57,VALID,0,INVALID,163.845,VALID,0,VALID,22.7287,VALID,360,VALID,0,
2011-09-21, 01:16:04,VALID,1004.59,VALID,0,INVALID,163.876,VALID,0,VALID,22.7499,VALID,360,VALID,0,
2011-09-21, 01:17:04,VALID,1004.55,VALID,0,INVALID,163.868,VALID,0,VALID,22.7482,VALID,360,VALID,0,
2011-09-21, 01:18:04,VALID,1004.56,VALID,0,INVALID,163.876,VALID,0,VALID,22.7305,VALID,360,VALID,0,
2011-09-21, 01:19:04,VALID,1004.55,VALID,0,INVALID,163.868,VALID,0,VALID,22.7305,VALID,360,VALID,0,
2011-09-21, 01:20:04,VALID,1004.55,VALID,0,INVALID,163.845,VALID,0,VALID,22.7499,VALID,360,VALID,0,
2011-09-21, 01:21:04,VALID,1004.49,VALID,0,INVALID,163.876,VALID,0,VALID,22.7482,VALID,360,VALID,0,
2011-09-21, 01:22:04,VALID,1004.54,VALID,0,INVALID,163.884,VALID,0,VALID,22.7287,VALID,360,VALID,0,
2011-09-21, 01:23:04,VALID,1004.53,VALID,0,INVALID,163.876,VALID,0,VALID,22.7499,VALID,360,VALID,0,
2011-09-21, 01:24:04,VALID,1004.53,VALID,0,INVALID,163.884,VALID,0,VALID,22.7482,VALID,360,VALID,0,
2011-09-21, 01:25:04,VALID,1004.51,VALID,0,INVALID,163.815,VALID,0,VALID,22.7694,VALID,360,VALID,0,
2011-09-21, 01:26:04,VALID,1004.54,VALID,0,INVALID,163.845,VALID,0,VALID,22.7482,VALID,360,VALID,0,
2011-09-21, 01:27:04,VALID,1004.55,VALID,0,INVALID,163.853,VALID,0,VALID,22.7305,VALID,360,VALID,0,
2011-09-21, 01:28:04,VALID,1004.53,VALID,0,INVALID,163.845,VALID,0,VALID,22.7305,VALID,360,VALID,0,
2011-09-21, 01:29:04,VALID,1004.55,VALID,0,INVALID,163.876,VALID,0,VALID,22.6721,VALID,360,VALID,0,
2011-09-21, 01:30:04,VALID,1004.56,VALID,0,INVALID,163.845,VALID,0,VALID,22.6526,VALID,360,VALID,0,
2011-09-21, 01:31:04,VALID,1004.55,VALID,0,INVALID,163.853,VALID,0,VALID,22.6332,VALID,360,VALID,0,
2011-09-21, 01:32:04,VALID,1004.53,VALID,0,INVALID,163.868,VALID,0,VALID,22.6315,VALID,360,VALID,0,
2011-09-21, 01:33:04,VALID,1004.54,VALID,0,INVALID,163.838,VALID,0,VALID,22.6315,VALID,360,VALID,0,
2011-09-21, 01:34:04,VALID,1004.54,VALID,0,INVALID,163.868,VALID,0,VALID,22.6509,VALID,360,VALID,0,
2011-09-21, 01:35:04,VALID,1004.54,VALID,0,INVALID,163.845,VALID,0,VALID,22.711,VALID,360,VALID,0,
2011-09-21, 01:36:04,VALID,1004.55,VALID,0,INVALID,163.891,VALID,0,VALID,22.6915,VALID,360,VALID,0,
2011-09-21, 01:37:04,VALID,1004.51,VALID,0,INVALID,163.845,VALID,0,VALID,22.6915,VALID,360,VALID,0,
2011-09-21, 01:38:04,VALID,1004.51,VALID,0,INVALID,163.891,VALID,0,VALID,22.6509,VALID,360,VALID,0,
2011-09-21, 01:39:04,VALID,1004.49,VALID,0,INVALID,163.853,VALID,0,VALID,22.6509,VALID,360,VALID,0,
2011-09-21, 01:40:04,VALID,1004.48,VALID,0,INVALID,163.884,VALID,0,VALID,22.6526,VALID,360,VALID,0,
2011-09-21, 01:41:04,VALID,1004.46,VALID,0,INVALID,163.853,VALID,0,VALID,22.6543,VALID,360,VALID,0,
2011-09-21, 01:42:04,VALID,1004.44,VALID,0,INVALID,163.868,VALID,0,VALID,22.6349,VALID,360,VALID,0,
2011-09-21, 01:43:04,VALID,1004.44,VALID,0,INVALID,163.876,VALID,0,VALID,22.5942,VALID,360,VALID,0,
2011-09-21, 01:44:04,VALID,1004.42,VALID,0,INVALID,163.876,VALID,0,VALID,22.5925,VALID,360,VALID,0,
2011-09-21, 01:45:04,VALID,1004.43,VALID,0,INVALID,163.876,VALID,0,VALID,22.612,VALID,360,VALID,0,
2011-09-21, 01:46:04,VALID,1004.41,VALID,0,INVALID,163.876,VALID,0,VALID,22.6332,VALID,360,VALID,0,
2011-09-21, 01:47:04,VALID,1004.41,VALID,0,INVALID,163.876,VALID,0,VALID,22.6509,VALID,360,VALID,0,
2011-09-21, 01:48:04,VALID,1004.4,VALID,0,INVALID,163.876,VALID,0,VALID,22.6704,VALID,358,VALID,0,
2011-09-21, 01:49:04,VALID,1004.4,VALID,0,INVALID,163.891,VALID,0,VALID,22.711,VALID,358,VALID,0,
2011-09-21, 01:50:04,VALID,1004.41,VALID,0,INVALID,163.838,VALID,0,VALID,22.7305,VALID,358,VALID,0,
2011-09-21, 01:51:04,VALID,1004.4,VALID,0,INVALID,163.929,VALID,0,VALID,22.7287,VALID,358,VALID,0,
2011-09-21, 01:52:04,VALID,1004.41,VALID,0,INVALID,163.891,VALID,0,VALID,22.7093,VALID,358,VALID,0,
2011-09-21, 01:53:04,VALID,1004.39,VALID,0,INVALID,163.845,VALID,0,VALID,22.7305,VALID,358,VALID,0,
2011-09-21, 01:54:04,VALID,1004.39,VALID,0,INVALID,163.861,VALID,0,VALID,22.711,VALID,358,VALID,0,
2011-09-21, 01:55:04,VALID,1004.38,VALID,0,INVALID,163.853,VALID,0,VALID,22.7093,VALID,358,VALID,0,
2011-09-21, 01:56:04,VALID,1004.4,VALID,0,INVALID,163.861,VALID,0,VALID,22.711,VALID,358,VALID,0,
2011-09-21, 01:57:04,VALID,1004.39,VALID,0,INVALID,163.853,VALID,0,VALID,22.6898,VALID,358,VALID,0,
2011-09-21, 01:58:04,VALID,1004.37,VALID,0,INVALID,163.876,VALID,0,VALID,22.7305,VALID,358,VALID,0,
2011-09-21, 01:59:04,VALID,1004.36,VALID,0,INVALID,163.853,VALID,0,VALID,22.7305,VALID,358,VALID,0,
2011-09-21, 02:00:04,VALID,1004.35,VALID,0,INVALID,163.884,VALID,0,VALID,22.7093,VALID,358,VALID,0,
2011-09-21, 02:01:04,VALID,1004.34,VALID,0,INVALID,163.861,VALID,0,VALID,22.6898,VALID,358,VALID,0,
2011-09-21, 02:02:04,VALID,1004.3,VALID,0,INVALID,163.868,VALID,0,VALID,22.6721,VALID,358,VALID,0,
2011-09-21, 02:03:04,VALID,1004.27,VALID,0,INVALID,163.899,VALID,0,VALID,22.6509,VALID,358,VALID,0,
2011-09-21, 02:04:04,VALID,1004.28,VALID,0,INVALID,163.876,VALID,0,VALID,22.6704,VALID,358,VALID,0,
2011-09-21, 02:05:04,VALID,1004.24,VALID,0,INVALID,163.853,VALID,0,VALID,22.6509,VALID,358,VALID,0,
2011-09-21, 02:06:04,VALID,1004.23,VALID,0,INVALID,163.868,VALID,0,VALID,22.6721,VALID,358,VALID,0,
2011-09-21, 02:07:04,VALID,1004.19,VALID,0,INVALID,163.868,VALID,0,VALID,22.612,VALID,358,VALID,0,
2011-09-21, 02:08:04,VALID,1004.2,VALID,0,INVALID,163.861,VALID,0,VALID,22.6332,VALID,358,VALID,0,
2011-09-21, 02:09:04,VALID,1004.15,VALID,0,INVALID,163.845,VALID,0,VALID,22.6332,VALID,358,VALID,0,
2011-09-21, 02:10:04,VALID,1004.13,VALID,0,INVALID,163.876,VALID,0,VALID,22.612,VALID,358,VALID,0,
2011-09-21, 02:11:04,VALID,1004.12,VALID,0,INVALID,163.891,VALID,0,VALID,22.6137,VALID,357,VALID,0,
2011-09-21, 02:12:04,VALID,1004.1,VALID,0,INVALID,163.861,VALID,0,VALID,22.5731,VALID,357,VALID,0,
2011-09-21, 02:13:04,VALID,1004.09,VALID,0,INVALID,163.853,VALID,0,VALID,22.5553,VALID,357,VALID,0,
2011-09-21, 02:14:04,VALID,1004.08,VALID,0,INVALID,163.853,VALID,0,VALID,22.5342,VALID,357,VALID,0,
2011-09-21, 02:15:04,VALID,1004.06,VALID,0,INVALID,163.891,VALID,0,VALID,22.5748,VALID,357,VALID,0,
2011-09-21, 02:16:04,VALID,1004.07,VALID,0,INVALID,163.884,VALID,0,VALID,22.5942,VALID,357,VALID,0,
2011-09-21, 02:17:04,VALID,1004.07,VALID,0,INVALID,163.922,VALID,0,VALID,22.5925,VALID,357,VALID,0,
2011-09-21, 02:18:04,VALID,1004.05,VALID,0,INVALID,163.838,VALID,0,VALID,22.6137,VALID,357,VALID,0,
2011-09-21, 02:19:04,VALID,1004.04,VALID,0,INVALID,163.876,VALID,0,VALID,22.612,VALID,357,VALID,0,
2011-09-21, 02:20:04,VALID,1004.03,VALID,0,INVALID,163.861,VALID,0,VALID,22.6526,VALID,357,VALID,0,
2011-09-21, 02:21:04,VALID,1004,VALID,0,INVALID,163.876,VALID,0,VALID,22.6315,VALID,357,VALID,0,
2011-09-21, 02:22:04,VALID,1004.02,VALID,0,INVALID,163.861,VALID,0,VALID,22.6526,VALID,357,VALID,0,
2011-09-21, 02:23:04,VALID,1003.99,VALID,0,INVALID,163.891,VALID,0,VALID,22.6315,VALID,357,VALID,0,
2011-09-21, 02:24:04,VALID,1003.98,VALID,0,INVALID,163.868,VALID,0,VALID,22.6526,VALID,357,VALID,0,
2011-09-21, 02:25:04,VALID,1003.99,VALID,0,INVALID,163.861,VALID,0,VALID,22.6543,VALID,357,VALID,0,
2011-09-21, 02:26:04,VALID,1003.97,VALID,0,INVALID,163.868,VALID,0,VALID,22.6332,VALID,357,VALID,0,
2011-09-21, 02:27:04,VALID,1003.97,VALID,0,INVALID,163.868,VALID,0,VALID,22.612,VALID,357,VALID,0,
2011-09-21, 02:28:04,VALID,1003.94,VALID,0,INVALID,163.845,VALID,0,VALID,22.6137,VALID,357,VALID,0,
2011-09-21, 02:29:04,VALID,1003.96,VALID,0,INVALID,163.853,VALID,0,VALID,22.6332,VALID,357,VALID,0,
2011-09-21, 02:30:04,VALID,1003.91,VALID,0,INVALID,163.868,VALID,0,VALID,22.6332,VALID,357,VALID,0,
2011-09-21, 02:31:04,VALID,1003.93,VALID,0,INVALID,163.845,VALID,0,VALID,22.6315,VALID,357,VALID,0,
2011-09-21, 02:32:04,VALID,1003.91,VALID,0,INVALID,163.853,VALID,0,VALID,22.6332,VALID,357,VALID,0,
2011-09-21, 02:33:04,VALID,1003.94,VALID,0,INVALID,163.876,VALID,0,VALID,22.6332,VALID,357,VALID,0,
2011-09-21, 02:34:04,VALID,1003.92,VALID,0,INVALID,163.876,VALID,0,VALID,22.5925,VALID,357,VALID,0,
2011-09-21, 02:35:04,VALID,1003.92,VALID,0,INVALID,163.861,VALID,0,VALID,22.6137,VALID,357,VALID,0,
2011-09-21, 02:36:04,VALID,1003.93,VALID,0,INVALID,163.922,VALID,0,VALID,22.5925,VALID,357,VALID,0,
2011-09-21, 02:37:04,VALID,1003.93,VALID,0,INVALID,163.891,VALID,0,VALID,22.5925,VALID,357,VALID,0,
2011-09-21, 02:38:04,VALID,1003.93,VALID,0,INVALID,163.899,VALID,0,VALID,22.6137,VALID,357,VALID,0,
2011-09-21, 02:39:04,VALID,1003.94,VALID,0,INVALID,163.868,VALID,0,VALID,22.612,VALID,357,VALID,0,
2011-09-21, 02:40:04,VALID,1003.95,VALID,0,INVALID,163.868,VALID,0,VALID,22.6137,VALID,357,VALID,0,
2011-09-21, 02:41:04,VALID,1003.94,VALID,0,INVALID,163.868,VALID,0,VALID,22.5942,VALID,357,VALID,0,
2011-09-21, 02:42:04,VALID,1003.95,VALID,0,INVALID,163.845,VALID,0,VALID,22.5942,VALID,357,VALID,0,
2011-09-21, 02:43:04,VALID,1003.94,VALID,0,INVALID,163.884,VALID,0,VALID,22.6137,VALID,357,VALID,0,
2011-09-21, 02:44:04,VALID,1003.96,VALID,0,INVALID,163.891,VALID,0,VALID,22.5925,VALID,357,VALID,0,
2011-09-21, 02:45:04,VALID,1003.95,VALID,0,INVALID,163.884,VALID,0,VALID,22.6137,VALID,357,VALID,0,
2011-09-21, 02:46:04,VALID,1003.95,VALID,0,INVALID,163.868,VALID,0,VALID,22.6332,VALID,357,VALID,0,
2011-09-21, 02:47:04,VALID,1003.94,VALID,0,INVALID,163.891,VALID,0,VALID,22.612,VALID,357,VALID,0,
2011-09-21, 02:48:04,VALID,1003.94,VALID,0,INVALID,163.891,VALID,0,VALID,22.6137,VALID,357,VALID,0,
2011-09-21, 02:49:04,VALID,1003.94,VALID,0,INVALID,163.868,VALID,0,VALID,22.6137,VALID,357,VALID,0,
2011-09-21, 02:50:04,VALID,1003.96,VALID,0,INVALID,163.868,VALID,0,VALID,22.5731,VALID,357,VALID,0,
2011-09-21, 02:51:04,VALID,1003.93,VALID,0,INVALID,163.899,VALID,0,VALID,22.5536,VALID,357,VALID,0,
2011-09-21, 02:52:04,VALID,1003.9,VALID,0,INVALID,163.876,VALID,0,VALID,22.5748,VALID,357,VALID,0,
2011-09-21, 02:53:04,VALID,1003.9,VALID,0,INVALID,163.884,VALID,0,VALID,22.5748,VALID,357,VALID,0,
2011-09-21, 02:54:04,VALID,1003.92,VALID,0,INVALID,163.868,VALID,0,VALID,22.5942,VALID,357,VALID,0,
2011-09-21, 02:55:04,VALID,1003.91,VALID,0,INVALID,163.868,VALID,0,VALID,22.5731,VALID,357,VALID,0,
2011-09-21, 02:56:04,VALID,1003.92,VALID,0,INVALID,163.861,VALID,0,VALID,22.5536,VALID,357,VALID,0,
2011-09-21, 02:57:04,VALID,1003.93,VALID,0,INVALID,163.853,VALID,0,VALID,22.5942,VALID,357,VALID,0,
2011-09-21, 02:58:04,VALID,1003.92,VALID,0,INVALID,163.884,VALID,0,VALID,22.5748,VALID,357,VALID,0,
2011-09-21, 02:59:04,VALID,1003.93,VALID,0,INVALID,163.884,VALID,0,VALID,22.5748,VALID,357,VALID,0,
2011-09-21, 03:00:04,VALID,1003.94,VALID,0,INVALID,163.876,VALID,0,VALID,22.5342,VALID,357,VALID,0,
2011-09-21, 03:01:04,VALID,1003.93,VALID,0,INVALID,163.853,VALID,0,VALID,22.5536,VALID,357,VALID,0,
2011-09-21, 03:02:04,VALID,1003.95,VALID,0,INVALID,163.891,VALID,0.100563,VALID,22.5536,VALID,357,VALID,0,
2011-09-21, 03:03:04,VALID,1003.96,VALID,0,INVALID,163.868,VALID,0.100563,VALID,22.5325,VALID,357,VALID,0,
2011-09-21, 03:04:04,VALID,1003.96,VALID,0,INVALID,163.861,VALID,0.100563,VALID,22.5325,VALID,357,VALID,0,
2011-09-21, 03:05:04,VALID,1003.95,VALID,0,INVALID,163.868,VALID,0.100563,VALID,22.5342,VALID,357,VALID,0,
2011-09-21, 03:06:04,VALID,1003.95,VALID,0,INVALID,163.876,VALID,0.100563,VALID,22.5342,VALID,357,VALID,0,
2011-09-21, 03:07:04,VALID,1003.94,VALID,0,INVALID,163.884,VALID,0.100563,VALID,22.5536,VALID,357,VALID,0,
2011-09-21, 03:08:04,VALID,1003.93,VALID,0,INVALID,163.853,VALID,0,VALID,22.5536,VALID,357,VALID,0,
2011-09-21, 03:09:04,VALID,1003.93,VALID,0,INVALID,163.868,VALID,0,VALID,22.5342,VALID,357,VALID,0,
2011-09-21, 03:10:04,VALID,1003.93,VALID,0,INVALID,163.845,VALID,0,VALID,22.5342,VALID,357,VALID,0,
2011-09-21, 03:11:04,VALID,1003.95,VALID,0,INVALID,163.884,VALID,0,VALID,22.513,VALID,357,VALID,0,
2011-09-21, 03:12:04,VALID,1003.93,VALID,0,INVALID,163.876,VALID,0,VALID,22.5147,VALID,357,VALID,0,
2011-09-21, 03:13:04,VALID,1003.94,VALID,0,INVALID,163.876,VALID,0.100563,VALID,22.4741,VALID,357,VALID,0,
2011-09-21, 03:14:04,VALID,1003.95,VALID,0,INVALID,163.899,VALID,0.100563,VALID,22.4352,VALID,357,VALID,0,
2011-09-21, 03:15:04,VALID,1003.96,VALID,0,INVALID,163.884,VALID,0,VALID,22.3963,VALID,357,VALID,0,
2011-09-21, 03:16:04,VALID,1003.97,VALID,0,INVALID,163.868,VALID,0,VALID,22.3997,VALID,357,VALID,0,
2011-09-21, 03:17:04,VALID,1003.97,VALID,0,INVALID,163.906,VALID,0,VALID,22.3785,VALID,357,VALID,0,
2011-09-21, 03:18:04,VALID,1003.97,VALID,0,INVALID,163.884,VALID,0,VALID,22.3785,VALID,357,VALID,0,
2011-09-21, 03:19:04,VALID,1004.01,VALID,0,INVALID,163.884,VALID,0,VALID,22.4191,VALID,357,VALID,0,
2011-09-21, 03:20:04,VALID,1004,VALID,0,INVALID,163.929,VALID,0,VALID,22.4386,VALID,357,VALID,0,
2011-09-21, 03:21:04,VALID,1003.99,VALID,0,INVALID,163.853,VALID,0,VALID,22.4386,VALID,357,VALID,0,
2011-09-21, 03:22:04,VALID,1003.99,VALID,0,INVALID,163.868,VALID,0,VALID,22.4386,VALID,357,VALID,0,
2011-09-21, 03:23:04,VALID,1004.01,VALID,0,INVALID,163.876,VALID,0,VALID,22.4369,VALID,357,VALID,0,
2011-09-21, 03:24:04,VALID,1003.97,VALID,0,INVALID,163.861,VALID,0,VALID,22.458,VALID,357,VALID,0,
2011-09-21, 03:25:04,VALID,1004.02,VALID,0,INVALID,163.884,VALID,0,VALID,22.4369,VALID,357,VALID,0,
2011-09-21, 03:26:04,VALID,1004.02,VALID,0,INVALID,163.868,VALID,0,VALID,22.4386,VALID,357,VALID,0,
2011-09-21, 03:27:04,VALID,1004,VALID,0,INVALID,163.891,VALID,0,VALID,22.4386,VALID,357,VALID,0,
2011-09-21, 03:28:04,VALID,1004.01,VALID,0,INVALID,163.884,VALID,0,VALID,22.3997,VALID,357,VALID,0,
2011-09-21, 03:29:04,VALID,1004.02,VALID,0,INVALID,163.899,VALID,0,VALID,22.3997,VALID,357,VALID,0,
2011-09-21, 03:30:04,VALID,1004.03,VALID,0,INVALID,163.861,VALID,0,VALID,22.3785,VALID,357,VALID,0,
2011-09-21, 03:31:04,VALID,1004.05,VALID,0,INVALID,163.884,VALID,0,VALID,22.3802,VALID,357,VALID,0,
2011-09-21, 03:32:04,VALID,1004.05,VALID,0,INVALID,163.891,VALID,0,VALID,22.3802,VALID,357,VALID,0,
2011-09-21, 03:33:04,VALID,1004.06,VALID,0,INVALID,163.868,VALID,0,VALID,22.3396,VALID,357,VALID,0,
2011-09-21, 03:34:04,VALID,1004.07,VALID,0,INVALID,163.868,VALID,0,VALID,22.3396,VALID,357,VALID,0,
2011-09-21, 03:35:04,VALID,1004.09,VALID,0,INVALID,163.922,VALID,0,VALID,22.3413,VALID,357,VALID,0,
2011-09-21, 03:36:04,VALID,1004.09,VALID,0,INVALID,163.891,VALID,0,VALID,22.3608,VALID,357,VALID,0,
2011-09-21, 03:37:04,VALID,1004.11,VALID,0,INVALID,163.899,VALID,0,VALID,22.3591,VALID,357,VALID,0,
2011-09-21, 03:38:04,VALID,1004.1,VALID,0,INVALID,163.884,VALID,0,VALID,22.3413,VALID,357,VALID,0,
2011-09-21, 03:39:04,VALID,1004.12,VALID,0,INVALID,163.853,VALID,0,VALID,22.3007,VALID,357,VALID,0,
2011-09-21, 03:40:04,VALID,1004.15,VALID,0,INVALID,163.891,VALID,0,VALID,22.3413,VALID,357,VALID,0,
2011-09-21, 03:41:04,VALID,1004.14,VALID,0,INVALID,163.868,VALID,0,VALID,22.3413,VALID,357,VALID,0,
2011-09-21, 03:42:04,VALID,1004.14,VALID,0,INVALID,163.906,VALID,0,VALID,22.3396,VALID,357,VALID,0,
2011-09-21, 03:43:04,VALID,1004.18,VALID,0,INVALID,163.914,VALID,0,VALID,22.3396,VALID,357,VALID,0,
2011-09-21, 03:44:04,VALID,1004.15,VALID,0,INVALID,163.884,VALID,0,VALID,22.3591,VALID,357,VALID,0,
2011-09-21, 03:45:04,VALID,1004.17,VALID,0,INVALID,163.884,VALID,0,VALID,22.3608,VALID,357,VALID,0,
2011-09-21, 03:46:04,VALID,1004.19,VALID,0,INVALID,163.891,VALID,0,VALID,22.3591,VALID,357,VALID,0,
2011-09-21, 03:47:04,VALID,1004.16,VALID,0,INVALID,163.868,VALID,0,VALID,22.3591,VALID,357,VALID,0,
2011-09-21, 03:48:04,VALID,1004.18,VALID,0,INVALID,163.891,VALID,0,VALID,22.3608,VALID,357,VALID,0,
2011-09-21, 03:49:04,VALID,1004.17,VALID,0,INVALID,163.876,VALID,0,VALID,22.3608,VALID,357,VALID,0,
2011-09-21, 03:50:04,VALID,1004.19,VALID,0,INVALID,163.906,VALID,0,VALID,22.3802,VALID,357,VALID,0,
2011-09-21, 03:51:04,VALID,1004.18,VALID,0,INVALID,163.906,VALID,0,VALID,22.3591,VALID,357,VALID,0,
2011-09-21, 03:52:04,VALID,1004.19,VALID,0,INVALID,163.876,VALID,0,VALID,22.3785,VALID,357,VALID,0,
2011-09-21, 03:53:04,VALID,1004.18,VALID,0,INVALID,163.899,VALID,0,VALID,22.3997,VALID,357,VALID,0,